This is the latest recevied weather packets stored in our database for station/object GBTWP-2. If no packets are shown the sender has not sent any weather packets the latest 10 day(s).
| Time | Temp. | Humidity | Pressure | Rain* | Wind** | Luminosity | Snow |
|---|---|---|---|---|---|---|---|
| 1778061303 | 5° C | 80% | 1012 hPa | 0 mm | - | 0 W/m² | - |
| 1778061002 | 5.56° C | 80% | 1011.8 hPa | 0 mm | - | 0 W/m² | - |
| 1778060701 | 5.56° C | 80% | 1011.8 hPa | 0 mm | - | 0 W/m² | - |
| 1778060102 | 5.56° C | 83% | 1011.9 hPa | 0 mm | - | 0 W/m² | - |
| 1778059802 | 5.56° C | 85% | 1011.7 hPa | 0 mm | - | 0 W/m² | - |
| 1778059501 | 6.11° C | 86% | 1011.8 hPa | 0 mm | - | 0 W/m² | - |
| 1778058901 | 6.11° C | 86% | 1011.8 hPa | 0 mm | - | 0 W/m² | - |
| 1778058602 | 5.56° C | 86% | 1011.6 hPa | 0 mm | - | 0 W/m² | - |
| 1778058302 | 6.11° C | 85% | 1011.8 hPa | 0 mm | - | 0 W/m² | - |
| 1778058002 | 6.11° C | 85% | 1011.7 hPa | 0 mm | - | 0 W/m² | - |
| 1778057406 | 5.56° C | 85% | 1011.7 hPa | 0 mm | - | 0 W/m² | - |
| 1778056505 | 5.56° C | 84% | 1011.7 hPa | 0 mm | - | 0 W/m² | - |
| 1778055602 | 6.11° C | 83% | 1011.7 hPa | 0 mm | - | 0 W/m² | - |
| 1778055002 | 6.11° C | 81% | 1011.9 hPa | 0 mm | - | 0 W/m² | - |
| 1778054405 | 6.67° C | 79% | 1011.7 hPa | 0 mm | - | 0 W/m² | - |
| 1778054102 | 6.67° C | 79% | 1011.6 hPa | 0 mm | - | 0 W/m² | - |
| 1778053505 | 6.67° C | 78% | 1011.7 hPa | 0 mm | - | 0 W/m² | - |
| 1778053206 | 6.67° C | 77% | 1011.6 hPa | 0 mm | - | 0 W/m² | - |
| 1778052305 | 7.22° C | 75% | 1011.7 hPa | 0 mm | - | 0 W/m² | - |
| 1778052005 | 7.22° C | 74% | 1011.5 hPa | 0 mm | - | 0 W/m² | - |
| 1778051406 | 7.22° C | 73% | 1011.7 hPa | 0 mm | - | 0 W/m² | - |
| 1778050805 | 7.78° C | 72% | 1011.6 hPa | 0 mm | - | 0 W/m² | - |
| 1778050505 | 7.78° C | 72% | 1011.6 hPa | 0 mm | - | 0 W/m² | - |
| 1778049905 | 7.78° C | 70% | 1011.3 hPa | 0 mm | - | 0 W/m² | - |
| 1778049605 | 7.78° C | 69% | 1011.6 hPa | 0 mm | - | 0 W/m² | - |
* Rain latest hour (hover to see other rain measurements)
** Current wind speed in m/s (hover to see current wind gust speed)